sat.trackr.live / text

‹ back to catalog

TIANQI-29

NORAD 61195 · 2024-170A

PAYLOAD ACTIVE UNKNOWN

§ Identity

Operator
Country
PRC
Launch date
2024-09-20
Launch site
XICLF
Launch vehicle
Mass (kg)
RCS (m²)

External: N2YO · Heavens-Above · Gunter

§ Orbital elements

Epoch: 2026-05-25T03:03:12.247776Z

Period
102.92 min
Inclination
44.8567°
Eccentricity
0.0005532
Mean motion
13.99139645 rev/d
Perigee alt
892.8 km
Apogee alt
900.8 km
Semi-major
7,274.9 km
B*
1.2655e-4
RAAN
239.5438°
Arg perigee
331.9772°
Mean anomaly
28.0761°
Rev number
8,563

§ Raw data

TIANQI-291 61195U 24170A   26145.12722509  .00000057  00000+0  12655-3 0  99952 61195  44.8567 239.5438 0005532 331.9772  28.0761 13.99139645 85635

JSON: /api/v1/satellites/61195 · /tle

For live sub-satellite position, see the globe view (requires WebGL).

§ Visibility from observer

Set your observer location to see the next 7 days of passes ≥ 10°. The values pass through the URL so the page stays shareable.

No JS? Fill the form by hand. The geolocation button needs JavaScript.